Regional Weather Roundup
Issued by NWS

Home | Current Version | Previous Version | Text Only | Print | Product List | Glossary On
Versions: 1 2 3 4 5 6 7 8 9 10 11 12 13 14 15 16 17 18 19 20 21 22 23 24 25 26 27
000
ASUS46 KPQR 190910
RWROR

OREGON REGIONAL WEATHER ROUNDUP
NATIONAL WEATHER SERVICE PORTLAND OR
200 AM PDT SAT APR 19 2014

NOTE: "FAIR" INDICATES FEW OR NO CLOUDS BELOW 12,000 FEET WITH
NO SIGNIFICANT WEATHER AND/OR OBSTRUCTIONS TO VISIBILITY.

ORZ001>013-191000-
NORTHWEST OREGON


CITY           SKY/WX    TMP DP  RH WIND       PRES   REMARKS
ASTORIA        MOCLDY    47  41  80 CALM      29.82F
NEWPORT        CLEAR     46  41  81 S9          N/A
PORTLAND       PTCLDY    46  40  79 CALM      29.87F
VANCOUVER WA   CLEAR     41  37  86 CALM      29.86F
SCAPPOOSE      CLEAR     40  37  89 CALM      29.85F
HILLSBORO      CLEAR     40  37  89 CALM      29.86S
AURORA         CLEAR     41  39  93 CALM      29.88S
MCMINNVILLE    CLEAR     41  40  96 CALM      29.88S
SALEM          CLEAR     42  37  82 S5        29.86S
CORVALLIS        N/A     39  36  87 CALM      29.89S
EUGENE         CLEAR     40  37  89 S6        29.89S
$$

ORZ021-028-191000-
SOUTHWEST OREGON


CITY           SKY/WX    TMP DP  RH WIND       PRES   REMARKS
NORTH BEND     CLOUDY    48  46  93 S7        29.93S
BROOKINGS      PTSUNNY   42  39  89 E3        29.99R
ROSEBURG       CLEAR     47  42  83 CALM      29.90R
SEXTON SUMMIT  CLEAR     45  30  55 SW16      29.91R
MEDFORD        PTCLDY    49  40  71 N3        29.89S
$$

ORZ009-041-191000-
COLUMBIA GORGE


CITY           SKY/WX    TMP DP  RH WIND       PRES   REMARKS
TROUTDALE      CLEAR     49  39  68 SE9       29.85F
THE DALLES     CLEAR     40  35  83 E3        29.93F
$$

ORZ029>031-042>050-061>064-191000-
EASTERN OREGON


CITY           SKY/WX    TMP DP  RH WIND       PRES   REMARKS
REDMOND        MOCLDY    36  23  59 S5        29.90S WCI  32
BEND           PTSUNNY   39  23  52 S5        29.91S
KLAMATH FALLS  MOCLDY    37  30  75 E3        29.94S
LAKEVIEW       MOCLDY    30  23  74 N6        29.97F WCI  24
HERMISTON      CLEAR     39  32  76 E6        29.91F WCI  35
PENDLETON      CLEAR     36  31  82 E8        29.90F WCI  30
MEACHAM        CLEAR     28  25  88 CALM      29.92F
LA GRANDE      CLEAR     32  21  64 NW6       29.95S WCI  26
BAKER CITY     CLEAR     29  23  78 CALM      29.98S
BURNS          PTCLDY    31  25  78 W3        29.95F
ROME             N/A     45  22  40 E3        29.95F
ONTARIO        PTCLDY    38  26  62 W5        29.99S WCI  34
$$



USA.gov is the U.S. government's official web portal to all federal, state and local government web resources and services.